User: anonymous   Login
Location: Oshawa
(43.9000°N, 78.8670°W)
Time: 16:30:02
(UTC-04:00)
Language:

Iridium 46 - Orbit

View from above orbital plane
View from above orbital plane
View from above satellite
View from above satellite

Ground track
Ground track

The orbit data is extracted from the following two-line orbital elements,

1 24905U 97043C   14297.44111134  .00000251  00000-0  82467-4 0   524
2 24905 086.3935 300.0053 0002162 105.1364 255.0072 14.34217139899268
Epoch (UTC): 24 October 2014 10:35:12
Eccentricity: 0.0002162
inclination: 86.3935°
perigee height: 776 km
apogee height: 779 km
right ascension of ascending node: 300.0053°
argument of perigee: 105.1364°
revolutions per day: 14.34217139
mean anomaly at epoch: 255.0072°
orbit number at epoch: 89926

The dashed part of the orbit path shows where the satellite is in the earth's shadow,  

DLR